www.pogodaiklimat.ru

Погода и климат >> Архив погоды >> Монголия >> Ногооннуур


ПОГОДА в Ногооннууре

  • Прогноз погоды в Ногооннууре
  • Монитор погоды в Ногооннууре

АРХИВ ПОГОДЫ в Ногооннууре

Время (UTC), дата Ветер
(напр.,м/с)
 
Видим.   Явления Облачность Т
(С)
Тd
(С)
f
(%)
Тe
(С)
Тes
(С)
Комфортность P
(гПа)
Po
(гПа)
Тmin
(С)
Tmax
(С)
R
(мм)
R24
(мм)
S
(см)
12 17.06 ЮВ 3 50 км 3/3 1000 м
[Cu med, cong]
+20.5 -3.4 20 +21 +22 комфорт 1004.2 845.6 +22.5
15 17.06 З 5 50 км 3/0
[Ac trans]
+18.1 -5.4 20 +18 +18 1007.0 846.8
18 17.06 СЗ 3 50 км 1/0
[Ac lent]
+13.0 +1.1 44 +12 +12 1011.5 847.9
21 17.06 З 2 50 км ясно +11.5 +0.7 47 +11 +11 1013.0 848.4
00 18.06 ЮЗ 2 50 км ясно +13.3 +1.9 46 +13 +15 1012.5 848.9 +10.2
03 18.06 ЮВ 2 50 км ясно +17.4 -1.2 28 +18 +30 опасность
простуды
1009.4 848.4
06 18.06 В 5 50 км 1/1 1000 м
[Cu hum]
+21.4 -7.0 14 +20 +29 1004.7 846.5
09 18.06 В 9 50 км 3/1 1000 м
[Cu hum Ci fib]
+23.5 -5.4 14 +22 +23 комфорт 1001.4 844.7
12 18.06 ЮЗ 5 50 км 3/1 1000 м
[Cu hum Ci fib]
+24.9 -5.3 13 +23 +23 комфорт 999.9 844.1 +25.6
15 18.06 Ю 4 50 км ясно +20.7 -2.2 21 +21 +21 комфорт 1003.5 845.1
18 18.06 Ю 3 50 км 3/0
[Ac lent]
+19.4 -1.8 24 +20 +20 1004.6 845.4
21 18.06 Ю 1 50 км 4/0
[Ci fib]
+15.2 -0.8 33 +16 +16 1007.4 845.6
00 19.06 В 2 50 км 8/0
[Ac trans Ci fib]
+16.9 +2.5 38 +17 +19 1007.4 846.5 +14.0
03 19.06 З 1 50 км 8/5 1000 м
[Cu hum Ac As]
+23.0 +1.1 24 +22 +26 комфорт 1004.0 846.7
06 19.06 СВ 3 50 км 8/6 1000 м
[Cu med, cong Ci fib]
+24.0 +2.8 25 +23 +29 комфорт 1002.3 845.7
09 19.06 ЮВ 3 50 км 8/6 1000 м
[Cu med, cong Cs]
+24.1 +5.3 30 +24 +27 комфорт 1001.7 845.3
12 19.06 З 5 50 км 8/4 1000 м
[Cu hum Ac cuf]
+23.9 +0.5 21 +23 +23 комфорт 1002.2 845.6 +25.8
15 19.06 С 3 50 км 8/0
[Ac trans Cc]
+19.6 -0.1 27 +20 +20 1005.8 846.5
18 19.06 ЮЗ 1 50 км 3/0
[Ac lent Ci fib]
+17.6 +1.0 33 +19 +19 1007.6 847.0
21 19.06 штиль 0 50 км 5/0
[Ci fib]
+15.3 +0.7 37 +15 +15 1009.3 847.3
00 20.06 штиль 0 50 км 10/0
[As op]
+16.0 +1.5 37 +16 +17 1009.6 847.9 +12.3
03 20.06 З 4 10 км осадки на расстоянии 10/0 600 м
[As op]
+19.0 +2.1 32 +19 +21 1008.8 848.7
06 20.06 ЮЗ 3 10 км слаб. дождь 10/0 600 м
[As op]
+16.4 +6.6 52 +16 +19 1012.0 850.1
09 20.06 В 3 50 км {дождь} 6/3 1000 м
[Cu hum Ac cast]
+19.1 +6.4 43 +20 +25 1009.7 849.5
12 20.06 В 2 50 км {дождь} 8/3 1000 м
[Cu hum]
+18.7 +5.4 42 +20 +20 1010.1 849.7 +19.6 0.2
15 20.06 штиль 0 50 км 5/0
[As trans]
+15.1 +6.4 56 +15 +15 1013.2 850.2
18 20.06 З 2 50 км 8/0
[Ac cast]
+13.0 +5.2 59 +12 +12 1014.3 850.3
21 20.06 З 2 50 км 8/0
[As trans]
+11.8 +4.0 59 +11 +11 1015.2 850.4
00 21.06 З 2 50 км 4/0
[Ac trans Ci fib]
+14.8 +4.7 51 +15 +16 1013.8 850.8 +8.3
03 21.06 В 2 50 км 3/3 1000 м
[Cu hum]
+20.4 +4.0 34 +22 +30 комфорт 1009.8 850.3
06 21.06 ЮЗ 3 50 км 5/5 1000 м
[Cu med, cong]
+23.4 +3.4 27 +23 +31 комфорт 1006.8 849.2
09 21.06 В 4 50 км 5/4 1000 м
[Cu med, cong Ci fib]
+24.5 +3.4 25 +24 +28 комфорт 1003.9 847.3
12 21.06 СВ 2 50 км 3/3 1000 м
[Cu med, cong]
+24.2 +1.7 23 +23 +25 комфорт 1003.1 846.5 +25.7
15 21.06 Ю 2 50 км {ливн. осадки} 6/3 1000 м
[Cu Sc Ac lent Ci fib]
+20.9 +6.6 39 +23 +23 комфорт 1005.1 846.6
18 21.06 З 5 50 км {ливн. осадки} 8/0
[As trans]
+17.0 +4.4 43 +16 +16 1007.9 847.0
21 21.06 З 5 50 км 6/0
[Ac trans Ci]
+16.7 +3.6 42 +16 +16 1007.9 846.8
00 22.06 З 5 50 км 3/0
[Ci fib]
+17.9 +4.6 41 +18 +19 1007.9 847.4 +15.6 0.5
03 22.06 ЮВ 2 50 км 3/3 1000 м
[Cu hum]
+22.3 +2.6 27 +22 +30 комфорт 1004.6 846.8
06 22.06 ЮЗ 2 50 км 3/3 1000 м
[Cu med, cong]
+25.1 -3.2 15 +23 +36 комфорт 1001.7 845.7
09 22.06 В 3 50 км 4/4 1000 м
[Cu med, cong]
+24.5 -0.7 19 +23 +29 комфорт 1000.8 844.7
12 22.06 ЮВ 4 50 км 6/3 1000 м
[Cu hum Ci fib]
+24.7 +0.8 21 +23 +24 комфорт 1000.2 844.3 +26.5
15 22.06 штиль 0 50 км 5/0
[Ac lent Ci fib]
+21.3 -0.1 24 +21 +21 комфорт 1002.9 844.9
18 22.06 СЗ 4 50 км 3/0
[Ci fib]
+18.2 +1.9 34 +18 +18 1006.2 846.1
21 22.06 З 3 50 км 5/0
[Ci fib]
+16.7 +2.7 39 +17 +17 1007.1 846.1
00 23.06 СЗ 3 50 км 8/3 1000 м
[Cu Sc Ac lent Ci fib]
+17.6 +3.1 38 +18 +18 1006.6 846.2 +15.0
03 23.06 В 2 50 км 9/4 1000 м
[Cu hum Ac As]
+20.4 +0.8 27 +21 +24 комфорт 1004.1 845.5
06 23.06 З 8 50 км 9/3 1000 м
[Cu hum As trans]
+21.4 +3.1 30 +21 +23 комфорт 1003.4 845.4
09 23.06 ЮЗ 6 50 км 8/5 1000 м
[Cu med, cong Ac As]
+22.9 +2.7 27 +23 +24 комфорт 1000.8 843.9
12 23.06 З 7 50 км 9/0
[As trans]
+20.8 +3.2 31 +21 +21 комфорт 1002.7 844.5 +24.6
15 23.06 З 5 50 км 8/0
[Ac As]
+18.6 +2.4 34 +18 +18 1004.8 845.2
18 23.06 Ю 2 50 км 6/0
[As trans]
+15.1 +1.0 38 +15 +15 1007.3 845.5
21 23.06 ЮЗ 4
{12}
50 км 8/0
[As trans]
+15.6 -0.1 34 +15 +15 1006.7 845.2
00 24.06 Ю 2 50 км 3/0
[Ac lent Ci fib]
+14.9 -0.6 35 +15 +17 1008.3 846.2 +13.2
03 24.06 ЮЗ 3 50 км 1/1 1000 м
[Cu hum]
+17.9 -5.7 20 +18 +27 1006.0 845.8
06 24.06 ЮЗ 4 50 км 4/4 1000 м
[Cu med, cong]
+21.1 -11.3 10 +20 +27 1002.3 844.3

 

Местоположение метеостанции Ногооннуур (Монголия): широта 49.60 долгота 90.35 высота над уровнем моря 1480 м.

В архиве по умолчанию представлена погода в Ногооннууре за последнюю неделю. Архивные данные за месяц целиком и за предыдущие месяцы, начиная с января 2011 года, Вы можете получить, выбрав интересующий диапазон дат из раскрывающегося списка и нажав кнопку "Ввод!".


*Определитесь, кто Вы:
робот инопланетянин человек

Внимание! Время в таблицах - всемирное. Для получения местного времени необходимо прибавить поправку, которая равна 8 ч.

Смотрите также архив погоды в соседних городах и на ближайших метеорологических станциях:

Погода в Углие (Монголия) (81 км)
Погода в Ташанте (Алтай, Россия) (84 км)
Погода в Мугур-Аксы (Тува, Россия) (86 км)
Погода в Умнегове (Монголия) (118 км)
Погода в Улаангоме (Монголия) (126 км)
Погода в Кош-Агаче (Алтай, Россия) (129 км)
Погода в Толбо (Монголия) (131 км)
Погода в Тээли (Тува, Россия) (158 км)
Погода в Хандагайты (Тува, Россия) (178 км)
Погода в Ховде (Монголия) (197 км)

Пояснения к столбцам:

Ветер - указаны скорость ветра в м/с - средняя за 10 мин, порывы в срок и между сроками (в фигурных скобках) и направление, откуда дует ветер: С - северный, СВ - северо-восточный, В - восточный, ЮВ - юго-восточный, Ю - южный, ЮЗ - юго-западный, З - западный, СЗ - северо-западный.
Видимость - горизонтальная дальность видимости в метрах или километрах. При видимости от 1 до 10 км при отсутствии осадков обычно наблюдается дымка, при ухудшении видимости до 1 км и менее - туман. В сухую погоду видимость может ухудшаться дымом, пылью или мглою.
Явления - указаны атмосферные явления, наблюдавшиеся в срок или в последний час перед сроком; фигурными скобками обозначены явления, наблюдавшиеся между сроками (за 1-3 часа до срока); квадратными скобками обозначены град или гололедные отложения с указанием их диаметра в мм.
Облачность - указаны через наклонную черту общая и нижняя облачность в баллах и высота нижней границы облаков в метрах; квадратными скобками обозначены формы облаков: Ci - перистые, Cs - перисто-слоистые, Cc - перисто-кучевые, Ac - высококучевые, As - высокослоистые, Sc - слоисто-кучевые, Ns - слоисто-дождевые, Cu - кучевые, Cb - кучево-дождевые. Подробнее классификацию облаков см. в Атласе облаков (PDF).
T - Температура воздуха - температура, измеренная на высоте 2 м над землей.
Td - Температура точки росы - температура, при понижении до которой содержащийся в воздухе водяной пар достигнет насыщения.
f - Относительная влажность воздуха - влажноcть воздуха, измеренная на высоте 2 м над землей.
Te - Эффективная температура - температура, которую ощущает одетый по сезону человек в тени. Характеристика душности погоды. При расчете учитывается влияние влажности воздуха и скорости ветра на теплоощущения человека.
Tes - Эффективная температура на солнце - температура, которую ощущает человек, с поправкой на солнечный нагрев. Характеристика знойности погоды. Зависит от высоты солнца над горизонтом, облачности и скорости ветра. Ночью, в пасмурную погоду, а также при ветре 12 м/с и более поправка равна нулю.
P - Атмосферное давление - приведенное к уровню моря атмосферное давление.
Po - Атмосферное давление - измеренное на уровне метеостанции атмосферное давление.
Tmin - Минимальная температура - минимум температуры воздуха на высоте 2 м над землей.
Tmax - Максимальная температура - максимум температуры воздуха на высоте 2 м над землей.
R - Количество осадков - Количество выпавших осадков за период времени, мм. При наведении курсора мыши на число - период времени, за который выпало указанное количество осадков.
R24 - Количество осадков - Количество выпавших осадков за 24 часа, мм.
S - Снежный покров - Высота снежного покрова, см. При наведении курсора мыши на число - состояние снежного покрова и степень покрытия местности в баллах.